Temp
75 75 75 77 77 78 79 80 80 81 81 81 82 82 81 81 80 80 80 78 78 77 77 78 78 77 77 77 77 77 77 77 77 77 76 77 78 77 77 77 78 77 77 77 77 77 78 79 79 80 79 79 78 79 78 79 78 80 79 79 78 79 78
74 75 76 77 76 78 79 80 81 82 81 81 82 81 81 81 80 80 79 79 78 78 78 78 78 77 77 77 78 77 77 77 77 78 78 77 79 77 78 78 78 77 77 77 77 78 78 80 79 79 79 79 79 78 79 78 78 78 78 78 77 77 77
75 75 76 75 76 76 78 80 81 82 81 81 82 81 80 80 80 80 79 79 78 78 79 79 79 78 77 77 77 77 77 77 77 77 77 78 78 79 79 79 78 78 79 79 78 80 80 80 79 79 79 79 80 78 78 78 78 78 78 77 78 77 76
75 75 76 76 77 77 79 79 80 81 81 81 82 81 80 80 80 80 80 80 78 78 77 79 79 79 77 77 77 76 77 77 78 78 79 79 79 79 78 78 78 79 78 78 80 81 83 80 80 78 81 79 79 79 79 79 79 78 78 77 77 77 76
75 77 76 75 75 75 77 78 80 80 80 81 82 81 81 81 81 80 80 81 80 79 80 80 81 80 79 78 79 79 78 78 78 79 79 79 79 79 79 80 79 79 80 80 79 79 79 79 80 79 79 78 79 78 79 79 79 78 77 77 77 77 77
74 74 75 74 73 73 76 79 80 80 80 79 80 80 80 80 81 81 81 81 80 80 80 80 81 80 79 79 80 80 78 78 78 78 79 79 79 79 79 80 80 80 81 80 80 80 80 80 80 79 80 80 80 79 80 79 79 79 78 78 78 78 78
73 73 69 68 70 71 73 74 77 79 80 80 80 81 81 80 80 81 81 80 80 79 80 80 81 80 79 80 79 79 78 79 79 80 80 80 80 80 80 80 81 81 82 80 80 81 80 80 80 80 80 81 79 80 79 79 78 79 78 77 77 77 77
72 69 68 71 72 71 71 72 73 74 75 77 79 79 79 80 80 80 80 80 81 81 80 80 80 79 79 80 79 79 79 79 80 81 80 81 81 80 80 80 80 81 81 81 81 81 81 80 82 81 81 81 80 80 80 79 78 80 79 78 77 77 81
67 68 69 71 71 70 70 71 72 74 75 76 77 77 78 79 79 79 79 80 80 80 80 80 80 79 79 79 79 79 80 80 80 80 81 81 81 82 82 82 82 81 81 82 82 82 82 81 82 81 80 81 80 79 80 79 79 79 79 78 78 78 79
68 69 68 69 69 69 70 70 71 72 72 73 75 76 77 78 78 79 79 79 80 79 80 80 80 79 79 79 79 79 80 80 80 81 81 81 82 82 83 83 83 83 82 83 83 83 82 82 82 81 79 80 80 79 80 79 79 79 79 79 79 78 78
68 68 68 68 68 68 68 69 69 71 72 73 74 75 77 77 77 78 78 79 79 79 79 80 80 80 79 79 80 79 79 80 80 80 80 79 80 82 84 84 84 83 83 83 84 84 83 81 81 80 80 82 80 79 79 80 80 79 80 80 80 79 80
67 67 67 67 68 68 67 68 69 70 71 73 74 74 75 76 77 78 78 79 80 80 79 79 79 80 79 79 79 78 79 80 80 80 80 80 79 80 83 84 84 84 84 84 83 83 84 83 82 82 80 80 81 81 80 80 79 79 80 81 81 80 80
67 67 67 68 68 68 68 68 68 69 69 72 73 74 73 74 75 77 77 78 79 80 79 78 78 79 79 79 79 77 78 79 80 80 80 79 79 79 79 81 83 83 83 83 83 83 83 84 83 82 82 81 81 81 81 80 81 80 80 81 81 80 79
68 67 67 68 68 68 68 68 68 68 69 69 70 71 71 72 72 73 74 73 73 75 73 72 73 74 77 78 77 75 76 76 78 79 79 79 78 78 78 78 80 80 79 79 79 81 81 82 83 83 82 82 81 82 81 80 80 79 79 80 80 80 80
66 66 67 67 67 67 68 68 68 69 69 69 70 69 69 69 69 70 71 71 72 72 72 73 74 73 73 74 73 72 72 72 72 72 73 76 76 77 77 77 78 77 77 78 79 81 79 81 83 83 82 82 81 82 81 81 80 79 78 79 78 79 80
65 66 67 67 67 67 68 68 68 69 69 69 69 69 69 70 70 71 70 71 71 72 72 72 72 72 71 70 70 71 71 71 72 71 72 72 72 73 74 76 77 77 76 77 77 77 77 76 79 81 82 81 79 79 80 79 78 76 76 77 78 77 79
65 65 66 66 67 67 68 69 69 69 68 68 69 69 69 69 70 70 70 70 71 71 72 72 71 71 70 71 71 70 71 71 71 70 70 70 71 71 73 74 75 75 75 75 75 75 75 76 77 78 79 80 80 78 78 77 75 69 66 68 74 79 77
65 65 66 67 67 68 68 68 68 68 68 69 69 69 69 69 69 70 70 71 70 71 71 71 70 70 70 70 70 71 70 70 70 70 70 71 72 71 71 73 74 74 75 75 75 74 75 75 76 76 77 78 77 77 75 72 67 63 65 67 69 75 77
65 66 66 67 67 66 67 67 67 67 67 67 68 68 68 69 69 68 69 70 70 71 71 70 70 70 70 70 70 71 70 71 70 70 70 71 72 72 73 73 74 74 74 74 75 74 72 73 74 75 75 75 74 74 73 70 64 63 66 67 67 68 78
66 66 66 66 66 66 66 66 66 66 67 67 67 68 68 68 68 68 69 69 70 69 69 69 69 70 70 71 71 71 71 70 70 70 71 72 72 72 73 73 72 72 72 72 72 72 72 73 73 73 73 73 72 70 70 69 64 61 63 64 67 68 72
65 65 65 65 65 66 66 66 66 66 66 67 67 68 68 68 68 68 68 68 68 69 68 68 68 68 69 69 69 69 70 71 71 71 71 71 71 70 70 70 70 71 71 71 71 70 71 72 72 73 73 72 70 69 68 68 61 60 62 61 63 66 75
63 64 64 64 64 64 64 65 65 65 65 67 66 66 66 66 67 67 66 68 67 67 68 68 67 67 68 68 68 68 69 69 69 69 69 69 69 69 69 69 69 69 71 71 70 70 70 71 72 71 71 71 70 67 66 64 59 59 60 60 61 64 76
64 64 65 65 66 65 66 66 66 66 66 66 65 65 64 65 66 65 65 65 65 65 65 65 64 64 65 66 66 68 68 69 69 68 68 68 68 68 68 68 68 69 70 68 68 68 70 70 72 72 71 72 70 66 64 64 60 57 58 58 59 66 76
66 65 66 65 66 66 66 66 67 67 66 65 65 65 65 65 65 65 64 63 64 64 63 63 62 63 64 64 65 66 67 68 68 68 68 68 68 68 68 69 69 69 70 68 68 68 68 70 71 71 71 71 68 67 64 62 60 56 56 56 57 64 72
65 65 65 65 65 64 65 65 66 66 66 65 64 65 65 65 65 64 63 63 63 63 62 62 62 63 63 64 65 65 65 66 67 67 68 68 68 68 68 68 69 70 69 69 69 68 68 70 71 70 69 71 69 70 64 62 62 57 56 56 57 65 71
63 64 64 66 66 66 66 66 66 66 66 66 65 67 67 67 66 65 64 64 64 63 63 62 63 64 65 65 65 65 66 67 67 66 66 67 68 68 68 69 69 68 67 67 67 67 67 68 70 69 68 66 64 63 63 61 61 60 55 56 57 61 69
65 67 67 67 67 68 66 67 67 66 66 65 66 67 66 65 63 62 63 64 63 63 63 64 65 64 64 65 66 66 66 66 66 66 66 67 67 68 69 69 67 67 67 67 68 67 66 65 65 64 64 64 63 63 63 63 62 60 55 54 55 57 62
67 68 68 69 69 68 67 67 66 66 67 66 67 67 66 65 64 63 63 63 63 63 65 64 63 64 64 63 64 64 64 65 66 66 66 66 67 66 66 67 67 68 68 68 68 67 66 66 65 64 63 64 64 65 64 67 66 62 58 55 55 54 57
66 66 66 66 66 68 68 66 66 66 66 67 67 67 66 65 63 63 62 62 62 64 64 65 64 63 63 64 64 64 64 64 66 66 67 66 66 65 64 65 65 66 67 67 67 67 66 65 64 63 61 61 62 63 64 65 66 65 62 57 54 55 55
65 66 66 68 68 67 67 64 64 64 66 66 65 64 64 63 62 62 61 61 62 64 65 63 62 62 64 65 65 64 65 66 66 65 66 68 67 65 63 63 64 65 65 65 66 67 66 65 64 63 62 61 61 63 63 63 63 65 65 62 57 55 55
65 66 66 66 67 67 66 64 62 63 63 63 63 63 62 61 62 61 60 61 63 63 63 63 63 63 63 63 64 64 63 63 62 64 64 65 65 64 64 64 64 63 63 64 64 64 65 66 66 65 64 62 62 61 62 62 60 60 63 65 63 58 56
64 64 64 65 65 65 65 64 63 63 62 61 62 62 61 60 60 61 60 62 63 61 61 62 63 63 62 62 63 63 63 64 63 63 63 63 64 64 63 63 64 62 61 62 62 63 63 64 66 66 64 63 63 61 60 60 59 59 60 62 64 63 60
63 64 65 64 64 65 64 63 62 61 61 60 61 61 62 60 59 60 61 62 62 62 63 64 65 65 64 62 61 61 62 61 61 62 63 62 63 64 64 62 61 62 62 61 60 61 62 63 64 63 63 62 60 60 59 57 57 57 57 57 58 59 60
63 63 64 64 64 64 62 61 60 60 60 59 59 60 61 60 61 60 61 62 63 62 63 66 66 64 62 61 61 62 62 62 70 64 60 61 60 60 61 62 63 61 60 59 60 60 59 61 61 60 61 59 59 59 59 57 55 56 56 57 57 57 58
63 62 62 63 63 63 61 61 61 60 61 60 59 58 59 60 61 60 60 61 61 60 62 65 67 63 60 61 61 63 65 63 62 60 59 58 57 55 53 53 57 59 57 57 55 57 61 60 59 60 60 60 60 59 57 58 57 58 57 55 52 52 53
62 62 62 62 62 62 62 62 61 61 60 58 58 59 59 60 60 61 62 62 61 60 62 63 61 59 59 59 60 61 62 62 61 60 59 58 56 56 56 55 49 50 57 57 57 50 45 50 57 58 58 55 55 56 58 57 58 56 47 45 43 43 44
62 62 62 62 61 60 60 60 61 60 60 58 59 60 60 60 61 61 62 62 61 60 59 59 62 60 59 61 60 62 63 61 58 57 56 57 55 57 56 55 55 45 45 50 52 45 40 41 42 49 56 58 55 54 51 51 47 44 44 42 42 42 42
63 63 63 62 62 60 60 59 60 60 60 57 59 60 60 62 61 59 62 60 60 59 58 58 59 58 59 58 60 64 61 57 60 60 59 56 56 55 54 53 52 53 47 43 44 44 41 39 39 39 42 47 52 57 54 50 46 44 43 43 42 41 41
MSLP
1014.43 1014.55 1014.35 1014.23 1014.59 1014.55 1014.63 1014.67 1014.79 1015.07 1015.23 1015.39 1015.43 1015.55 1015.91 1016.15 1016.43 1016.71 1017.11 1017.39 1017.67 1017.99 1018.03 1018.07 1018.31 1018.47 1018.71 1018.79 1018.83 1018.91 1018.95 1019.11 1019.23 1019.43 1019.51 1019.55 1019.51 1019.63 1019.87 1019.91 1019.99 1019.99 1020.03 1020.19 1020.11 1020.07 1019.87 1019.75 1019.79 1019.75 1019.79 1019.79 1019.83 1019.83 1019.83 1019.79 1019.83 1019.79 1019.75 1019.79 1019.87 1019.91 1019.99
1014.43 1014.35 1014.27 1014.07 1014.43 1014.35 1014.23 1014.23 1014.39 1014.59 1014.87 1015.07 1015.07 1015.27 1015.63 1015.99 1016.23 1016.59 1016.87 1017.11 1017.35 1017.63 1017.83 1017.95 1018.19 1018.39 1018.51 1018.63 1018.67 1018.83 1018.99 1019.07 1019.11 1019.19 1019.31 1019.43 1019.39 1019.43 1019.43 1019.63 1019.75 1019.87 1019.83 1019.79 1019.79 1019.71 1019.71 1019.71 1019.71 1019.83 1019.83 1019.79 1019.83 1019.75 1019.79 1019.79 1019.79 1019.83 1019.87 1019.87 1020.03 1020.07 1020.03
1014.07 1014.03 1014.03 1013.95 1014.15 1014.27 1014.03 1014.07 1014.11 1014.15 1014.47 1014.79 1014.79 1015.15 1015.47 1015.75 1015.95 1016.23 1016.59 1016.99 1017.39 1017.51 1017.63 1017.87 1017.99 1018.19 1018.35 1018.51 1018.75 1018.87 1018.87 1018.95 1019.11 1019.19 1019.39 1019.43 1019.43 1019.39 1019.35 1019.39 1019.51 1019.63 1019.59 1019.55 1019.63 1019.63 1019.51 1019.63 1019.59 1019.71 1019.71 1019.79 1019.79 1019.83 1019.79 1019.79 1019.79 1019.79 1019.83 1019.87 1019.99 1020.11 1020.19
1013.67 1013.75 1013.71 1013.55 1013.59 1013.75 1013.55 1013.71 1013.91 1013.95 1014.07 1014.27 1014.43 1014.79 1015.15 1015.51 1015.63 1015.87 1016.19 1016.55 1017.11 1017.43 1017.75 1017.75 1017.87 1018.03 1018.23 1018.51 1018.71 1018.79 1018.87 1018.83 1018.87 1018.95 1019.03 1019.07 1019.15 1019.11 1019.31 1019.43 1019.43 1019.43 1019.63 1019.63 1019.43 1019.43 1019.39 1019.47 1019.55 1019.63 1019.59 1019.75 1019.79 1019.79 1019.79 1019.79 1019.75 1019.75 1019.79 1019.87 1020.03 1020.03 1020.11
1013.27 1013.31 1013.51 1013.63 1013.63 1013.83 1013.71 1013.67 1013.75 1013.83 1014.03 1014.03 1014.07 1014.35 1014.75 1015.15 1015.47 1015.83 1016.07 1016.23 1016.51 1017.03 1017.15 1017.35 1017.51 1017.67 1017.95 1018.11 1018.35 1018.51 1018.59 1018.67 1018.75 1018.71 1018.75 1018.75 1018.79 1018.95 1019.19 1019.31 1019.35 1019.43 1019.35 1019.31 1019.31 1019.39 1019.43 1019.51 1019.55 1019.59 1019.63 1019.63 1019.71 1019.75 1019.79 1019.75 1019.79 1019.71 1019.79 1019.83 1020.03 1020.03 1020.11
1013.43 1013.51 1013.47 1013.51 1013.55 1013.63 1013.59 1013.43 1013.39 1013.51 1013.79 1014.15 1014.23 1014.47 1014.71 1015.03 1015.35 1015.75 1015.91 1016.15 1016.39 1016.51 1016.75 1017.11 1017.39 1017.55 1017.91 1017.95 1018.03 1018.23 1018.35 1018.43 1018.47 1018.51 1018.63 1018.67 1018.75 1018.95 1019.07 1019.03 1019.11 1019.15 1019.27 1019.27 1019.15 1019.23 1019.23 1019.35 1019.39 1019.47 1019.59 1019.59 1019.59 1019.67 1019.67 1019.71 1019.71 1019.71 1019.75 1019.83 1019.91 1019.99 1020.11
1013.39 1013.43 1013.83 1013.83 1013.75 1013.71 1013.51 1013.47 1013.51 1013.39 1013.39 1013.63 1013.83 1014.03 1014.43 1014.83 1015.19 1015.43 1015.63 1015.99 1016.15 1016.63 1016.83 1016.99 1017.11 1017.31 1017.55 1017.67 1017.87 1018.03 1018.35 1018.39 1018.43 1018.51 1018.43 1018.51 1018.55 1018.75 1018.79 1018.79 1018.79 1018.87 1018.83 1018.91 1019.11 1019.03 1019.19 1019.27 1019.27 1019.27 1019.35 1019.43 1019.55 1019.59 1019.63 1019.67 1019.71 1019.59 1019.71 1019.83 1019.95 1019.91 1019.95
1014.03 1014.31 1014.15 1013.79 1013.99 1014.15 1013.79 1013.55 1013.51 1013.51 1013.47 1013.55 1013.91 1014.15 1014.43 1014.59 1014.91 1015.31 1015.59 1015.71 1015.95 1016.23 1016.55 1016.79 1016.95 1017.11 1017.23 1017.39 1017.59 1017.83 1018.03 1018.11 1018.15 1018.19 1018.31 1018.39 1018.43 1018.59 1018.59 1018.59 1018.59 1018.55 1018.67 1018.91 1018.75 1018.79 1018.99 1019.07 1019.07 1019.07 1019.15 1019.31 1019.43 1019.47 1019.51 1019.51 1019.55 1019.51 1019.59 1019.79 1019.95 1019.99 1019.87
1014.75 1015.07 1014.95 1014.19 1013.99 1013.83 1013.83 1013.55 1013.63 1013.47 1013.43 1013.63 1013.95 1014.19 1014.31 1014.55 1014.79 1015.11 1015.35 1015.55 1015.71 1016.03 1016.31 1016.31 1016.51 1016.63 1016.87 1017.15 1017.43 1017.59 1017.67 1017.83 1018.07 1018.11 1018.27 1018.39 1018.39 1018.47 1018.39 1018.35 1018.31 1018.31 1018.59 1018.67 1018.63 1018.55 1018.67 1018.79 1018.83 1018.91 1019.03 1019.15 1019.23 1019.31 1019.43 1019.43 1019.47 1019.43 1019.51 1019.67 1019.79 1019.95 1019.91
1013.87 1013.63 1014.03 1014.59 1014.55 1014.23 1014.11 1014.31 1014.11 1013.91 1013.87 1014.03 1014.15 1014.27 1014.31 1014.43 1014.67 1014.87 1015.11 1015.35 1015.55 1015.83 1015.91 1016.03 1016.19 1016.43 1016.71 1017.03 1017.23 1017.35 1017.51 1017.75 1017.83 1018.03 1018.19 1018.35 1018.27 1018.35 1018.23 1018.15 1018.15 1018.11 1018.35 1018.39 1018.39 1018.55 1018.43 1018.43 1018.59 1018.71 1018.91 1019.07 1019.15 1019.19 1019.23 1019.31 1019.35 1019.39 1019.39 1019.47 1019.59 1019.71 1019.79
1014.19 1013.95 1013.79 1013.79 1014.83 1015.79 1015.59 1015.23 1014.95 1014.31 1014.03 1014.03 1014.15 1014.23 1014.27 1014.43 1014.63 1014.79 1014.99 1015.11 1015.35 1015.47 1015.51 1015.67 1015.79 1016.19 1016.51 1016.83 1017.19 1017.39 1017.55 1017.63 1017.71 1017.91 1018.07 1018.15 1018.11 1018.15 1018.07 1018.07 1018.03 1018.03 1018.15 1018.19 1018.31 1018.23 1018.31 1018.39 1018.35 1018.59 1018.75 1018.95 1019.03 1019.11 1019.11 1019.07 1019.11 1019.27 1019.27 1019.27 1019.31 1019.43 1019.51
1014.43 1014.59 1014.99 1015.03 1014.75 1014.95 1016.03 1016.47 1016.11 1015.67 1014.67 1013.99 1014.03 1014.27 1014.35 1014.43 1014.55 1014.75 1014.87 1014.87 1014.83 1015.19 1015.43 1015.55 1015.67 1015.95 1016.35 1016.67 1017.11 1017.43 1017.55 1017.59 1017.71 1017.79 1017.87 1017.95 1017.99 1017.99 1017.95 1017.87 1017.91 1017.95 1017.91 1017.95 1018.15 1018.07 1018.07 1018.19 1018.27 1018.39 1018.59 1018.59 1018.63 1018.67 1018.75 1018.71 1018.83 1018.95 1019.03 1019.11 1019.11 1019.19 1019.27
1014.27 1014.31 1014.39 1014.59 1014.75 1014.63 1014.51 1015.39 1016.23 1016.27 1016.11 1015.35 1014.47 1014.31 1014.51 1014.59 1014.75 1014.79 1014.91 1015.07 1014.95 1014.95 1015.19 1015.47 1015.75 1015.99 1016.35 1016.59 1016.91 1017.27 1017.43 1017.47 1017.55 1017.55 1017.63 1017.67 1017.71 1017.71 1017.75 1017.75 1017.75 1017.79 1017.87 1017.75 1017.87 1017.99 1018.03 1017.95 1018.11 1018.07 1018.19 1018.27 1018.27 1018.43 1018.43 1018.51 1018.55 1018.71 1018.79 1018.87 1018.91 1018.99 1019.11
1014.35 1014.35 1014.19 1014.15 1014.47 1014.67 1014.79 1014.63 1014.87 1015.79 1016.35 1016.35 1016.31 1015.87 1015.51 1015.51 1015.55 1015.59 1015.59 1016.07 1016.27 1016.19 1016.19 1016.35 1016.71 1017.07 1016.63 1016.67 1016.95 1017.23 1017.35 1017.31 1017.23 1017.27 1017.31 1017.35 1017.43 1017.51 1017.51 1017.59 1017.59 1017.55 1017.51 1017.47 1017.67 1017.75 1017.83 1017.99 1017.95 1017.83 1017.87 1017.99 1018.03 1018.03 1018.11 1018.27 1018.47 1018.55 1018.55 1018.59 1018.67 1018.83 1018.91
1014.75 1014.59 1014.31 1014.31 1014.35 1014.59 1014.67 1014.75 1014.71 1014.83 1015.11 1015.51 1015.99 1016.71 1016.99 1016.67 1016.75 1016.75 1016.75 1016.79 1016.99 1017.35 1017.59 1016.75 1016.31 1017.11 1017.79 1017.11 1017.15 1017.39 1017.35 1017.43 1017.51 1017.51 1017.51 1017.47 1017.43 1017.43 1017.43 1017.59 1017.55 1017.51 1017.47 1017.47 1017.59 1017.63 1017.63 1017.47 1017.55 1017.79 1017.95 1017.83 1017.87 1017.91 1017.99 1018.27 1018.43 1018.47 1018.51 1018.59 1018.59 1018.59 1018.75
1015.03 1014.79 1014.47 1014.31 1014.35 1014.55 1014.79 1014.99 1014.99 1014.91 1014.91 1015.19 1015.47 1015.67 1015.99 1016.31 1016.63 1016.87 1016.91 1017.27 1017.39 1017.47 1017.63 1017.95 1017.63 1017.59 1018.03 1018.43 1018.15 1017.71 1017.39 1017.31 1017.43 1017.55 1017.55 1017.51 1017.59 1017.63 1017.55 1017.59 1017.55 1017.55 1017.59 1017.59 1017.59 1017.67 1017.63 1017.59 1017.47 1017.51 1017.71 1017.95 1018.03 1018.07 1018.15 1018.31 1018.35 1018.43 1018.47 1018.43 1018.51 1018.59 1018.59
1015.23 1015.23 1015.03 1014.83 1014.79 1014.83 1014.83 1014.87 1014.99 1015.11 1015.23 1015.31 1015.39 1015.47 1015.43 1015.75 1016.27 1016.47 1016.59 1016.83 1016.91 1017.03 1017.15 1017.39 1018.43 1018.47 1018.15 1018.19 1018.11 1017.99 1017.75 1017.71 1017.95 1017.91 1017.87 1017.91 1017.83 1017.79 1017.67 1017.55 1017.51 1017.55 1017.63 1017.67 1017.71 1017.75 1017.83 1017.83 1017.75 1017.67 1017.67 1017.63 1017.83 1018.11 1018.23 1018.31 1018.39 1018.43 1018.43 1018.39 1018.39 1018.39 1018.55
1015.31 1015.43 1015.39 1015.23 1015.07 1015.11 1015.31 1015.35 1015.27 1015.15 1015.07 1015.15 1015.35 1015.59 1015.83 1016.03 1016.39 1016.67 1017.19 1017.27 1017.23 1017.03 1016.67 1016.83 1017.47 1018.23 1018.47 1018.31 1018.03 1017.95 1018.03 1018.07 1018.19 1018.15 1017.95 1017.91 1017.95 1017.91 1017.91 1017.87 1017.71 1017.67 1017.67 1017.75 1017.87 1017.87 1017.87 1018.03 1017.99 1017.83 1017.75 1017.83 1017.91 1018.11 1018.31 1018.47 1018.55 1018.55 1018.43 1018.35 1018.31 1018.27 1018.31
1015.35 1015.35 1015.47 1015.39 1015.35 1015.43 1015.51 1015.67 1015.67 1015.55 1015.55 1015.67 1015.83 1015.95 1015.99 1015.87 1016.27 1016.71 1016.79 1016.83 1016.87 1016.67 1016.75 1017.11 1017.59 1017.95 1018.15 1018.15 1018.15 1018.11 1018.03 1017.95 1018.19 1018.31 1018.19 1018.03 1017.95 1017.91 1017.95 1017.99 1018.03 1017.99 1017.99 1018.03 1017.87 1017.91 1018.11 1018.19 1018.19 1018.19 1018.15 1018.15 1018.27 1018.47 1018.55 1018.71 1018.87 1018.87 1018.83 1018.35 1018.11 1018.11 1018.03
1015.59 1015.59 1015.59 1015.59 1015.51 1015.55 1015.71 1015.83 1015.95 1015.83 1015.79 1015.91 1015.99 1016.07 1016.07 1016.03 1016.19 1016.51 1016.47 1016.55 1016.51 1016.51 1016.63 1016.91 1017.67 1017.95 1018.03 1017.87 1017.91 1018.07 1018.03 1017.99 1018.15 1018.31 1018.19 1018.11 1018.03 1017.95 1017.95 1018.03 1018.11 1018.11 1018.07 1018.07 1018.11 1018.23 1018.35 1018.31 1018.35 1018.35 1018.43 1018.47 1018.55 1018.71 1018.79 1018.79 1018.87 1018.87 1018.75 1018.67 1018.35 1017.95 1017.91
1015.99 1015.95 1016.03 1016.11 1016.15 1016.15 1016.19 1016.23 1016.31 1016.39 1016.35 1016.23 1016.15 1016.11 1016.15 1016.43 1016.51 1016.51 1016.83 1016.95 1017.07 1017.03 1017.11 1017.31 1017.67 1017.99 1018.07 1017.83 1017.71 1017.79 1017.79 1017.91 1018.07 1018.23 1018.11 1018.03 1018.03 1018.07 1018.15 1018.19 1018.19 1018.23 1018.23 1018.23 1018.39 1018.59 1018.79 1018.83 1018.79 1018.63 1018.51 1018.47 1018.59 1018.75 1018.87 1018.87 1018.95 1018.75 1018.71 1018.63 1018.55 1018.35 1017.87
1016.43 1016.31 1016.47 1016.55 1016.71 1016.95 1016.95 1017.03 1017.11 1017.11 1017.15 1016.79 1016.71 1016.87 1016.95 1017.15 1016.99 1016.91 1016.99 1016.99 1017.27 1017.47 1017.59 1017.79 1018.03 1018.27 1018.35 1018.39 1018.23 1018.19 1018.19 1018.19 1018.27 1018.27 1018.23 1018.23 1018.19 1018.27 1018.39 1018.51 1018.63 1018.55 1018.35 1018.31 1018.35 1018.39 1018.51 1018.59 1018.59 1018.75 1018.75 1018.67 1018.71 1018.87 1018.99 1019.11 1019.03 1018.79 1018.67 1018.67 1018.59 1018.47 1018.19
1016.59 1016.67 1016.51 1016.51 1016.39 1016.59 1016.63 1016.71 1016.87 1016.95 1016.91 1017.03 1017.11 1017.27 1017.59 1017.67 1017.71 1017.79 1017.83 1017.79 1017.75 1017.79 1018.03 1018.19 1018.51 1018.83 1018.91 1018.91 1018.79 1018.63 1018.55 1018.51 1018.47 1018.43 1018.35 1018.35 1018.39 1018.51 1018.59 1018.79 1018.91 1018.71 1018.43 1018.51 1018.55 1018.59 1018.63 1018.71 1018.75 1018.75 1018.79 1018.79 1018.91 1019.03 1019.15 1019.11 1018.99 1018.87 1018.87 1018.63 1018.59 1018.47 1018.31
1016.59 1016.75 1016.75 1016.75 1016.83 1016.83 1016.71 1016.71 1016.71 1016.79 1016.99 1017.23 1017.39 1017.55 1017.63 1017.79 1018.11 1018.43 1018.71 1018.87 1018.79 1018.71 1018.79 1018.87 1019.11 1019.23 1019.23 1019.31 1019.19 1018.95 1018.75 1018.59 1018.51 1018.51 1018.51 1018.51 1018.63 1018.67 1018.67 1018.63 1018.55 1018.47 1018.31 1018.47 1018.55 1018.59 1018.55 1018.63 1018.83 1018.87 1018.83 1018.75 1018.79 1018.91 1019.03 1019.35 1019.43 1019.35 1019.15 1018.79 1018.63 1018.63 1018.51
1017.27 1017.23 1016.91 1016.71 1016.95 1017.31 1017.19 1017.11 1016.95 1016.95 1017.15 1017.35 1017.63 1017.71 1017.67 1017.91 1018.23 1018.63 1019.07 1019.15 1019.15 1019.15 1019.27 1019.39 1019.39 1019.27 1019.27 1019.27 1019.15 1019.03 1018.95 1018.83 1018.75 1018.75 1018.75 1018.83 1018.83 1018.79 1018.83 1018.75 1018.63 1018.43 1018.35 1018.47 1018.51 1018.55 1018.47 1018.55 1018.87 1018.95 1018.63 1018.43 1018.91 1019.15 1019.51 1019.63 1019.59 1019.43 1019.15 1018.79 1018.55 1018.43 1018.31
1017.23 1017.51 1017.55 1017.31 1016.87 1016.87 1017.23 1017.07 1016.87 1016.91 1017.19 1017.55 1017.75 1017.67 1017.79 1017.99 1018.31 1018.79 1019.15 1019.35 1019.27 1019.39 1019.43 1019.39 1019.27 1019.19 1019.15 1019.15 1019.11 1019.07 1019.07 1019.07 1019.07 1018.99 1018.99 1018.95 1018.87 1018.79 1018.75 1018.67 1018.63 1018.59 1018.63 1018.59 1018.59 1018.71 1018.67 1018.59 1018.63 1018.75 1018.95 1019.15 1019.47 1019.71 1019.87 1019.91 1019.91 1019.79 1019.47 1018.99 1018.63 1018.31 1018.19
1016.79 1017.11 1017.47 1017.31 1017.27 1017.15 1017.39 1017.11 1016.91 1017.07 1017.35 1017.59 1017.67 1017.79 1017.99 1018.23 1018.55 1018.87 1018.99 1019.07 1019.19 1019.47 1019.55 1019.47 1019.43 1019.43 1019.39 1019.31 1019.23 1019.19 1019.19 1019.15 1019.19 1019.23 1019.15 1019.07 1019.03 1018.91 1018.87 1018.83 1018.87 1018.79 1018.71 1018.79 1018.79 1018.87 1018.99 1019.07 1019.15 1019.43 1019.67 1019.75 1019.83 1019.91 1019.99 1020.03 1020.15 1020.11 1019.87 1019.31 1018.91 1018.63 1018.47
1016.99 1017.07 1017.07 1017.07 1017.11 1017.19 1017.31 1017.23 1017.27 1017.31 1017.51 1017.63 1017.79 1017.95 1018.11 1018.27 1018.59 1018.87 1018.99 1019.19 1019.43 1019.55 1019.55 1019.63 1019.63 1019.59 1019.55 1019.51 1019.47 1019.43 1019.35 1019.27 1019.23 1019.23 1019.31 1019.23 1019.15 1019.19 1019.23 1019.11 1019.03 1018.95 1018.83 1018.71 1018.75 1019.03 1019.35 1019.51 1019.63 1019.83 1019.99 1020.03 1019.99 1019.99 1020.11 1020.07 1020.23 1020.35 1020.11 1019.63 1019.27 1019.11 1018.91
1017.39 1017.43 1017.47 1017.51 1017.55 1017.51 1017.55 1017.75 1017.83 1017.95 1018.03 1018.03 1018.11 1018.23 1018.39 1018.55 1018.95 1019.23 1019.35 1019.55 1019.59 1019.43 1019.43 1019.51 1019.59 1019.63 1019.63 1019.63 1019.59 1019.55 1019.47 1019.43 1019.39 1019.43 1019.43 1019.51 1019.51 1019.51 1019.55 1019.47 1019.39 1019.27 1019.07 1018.99 1018.95 1019.11 1019.59 1019.95 1020.15 1020.27 1020.39 1020.35 1020.35 1020.35 1020.39 1020.31 1020.15 1020.27 1020.39 1020.15 1019.79 1019.55 1019.35
1017.55 1017.55 1017.55 1017.55 1017.67 1017.83 1017.91 1018.27 1018.39 1018.55 1018.59 1018.59 1018.63 1018.75 1018.91 1019.11 1019.43 1019.59 1019.71 1019.79 1019.51 1019.39 1019.39 1019.43 1019.55 1019.59 1019.67 1019.71 1019.71 1019.63 1019.55 1019.55 1019.63 1019.63 1019.67 1019.75 1019.71 1019.71 1019.79 1019.79 1019.71 1019.63 1019.55 1019.43 1019.39 1019.55 1019.83 1020.15 1020.31 1020.51 1020.67 1020.79 1020.87 1020.75 1020.63 1020.47 1020.51 1020.43 1020.31 1020.35 1020.23 1019.99 1019.87
1017.79 1017.79 1017.87 1017.99 1018.11 1018.11 1018.27 1018.55 1018.83 1018.99 1019.15 1019.15 1019.19 1019.23 1019.39 1019.47 1019.71 1019.87 1019.95 1019.79 1019.47 1019.51 1019.55 1019.63 1019.67 1019.79 1019.87 1019.83 1019.79 1019.71 1019.67 1019.71 1019.79 1019.83 1019.87 1019.95 1020.03 1020.07 1020.11 1020.15 1020.03 1020.11 1019.99 1019.79 1019.83 1019.87 1019.99 1020.15 1020.27 1020.51 1020.71 1020.91 1021.03 1020.95 1020.87 1020.87 1020.91 1020.83 1020.63 1020.51 1020.51 1020.47 1020.31
1017.91 1017.95 1018.07 1018.23 1018.39 1018.43 1018.59 1018.71 1018.91 1019.11 1019.35 1019.39 1019.27 1019.35 1019.43 1019.59 1019.71 1020.03 1020.03 1019.75 1019.63 1019.59 1019.63 1019.71 1019.79 1019.87 1019.99 1019.95 1019.91 1019.83 1019.79 1019.87 1019.87 1019.95 1020.07 1020.15 1020.15 1020.19 1020.23 1020.31 1020.39 1020.47 1020.47 1020.31 1020.27 1020.23 1020.19 1020.19 1020.19 1020.43 1020.67 1020.91 1020.95 1021.07 1021.15 1021.19 1021.23 1021.23 1021.15 1020.95 1020.75 1020.71 1020.67
1017.99 1018.07 1018.27 1018.51 1018.55 1018.63 1018.83 1018.95 1019.23 1019.39 1019.47 1019.59 1019.51 1019.43 1019.47 1019.55 1019.63 1019.71 1019.75 1019.71 1019.71 1019.71 1019.71 1019.83 1019.91 1019.99 1019.99 1019.99 1019.95 1019.99 1019.99 1020.03 1020.07 1020.23 1020.31 1020.43 1020.47 1020.43 1020.47 1020.51 1020.55 1020.59 1020.67 1020.71 1020.63 1020.59 1020.51 1020.47 1020.47 1020.55 1020.71 1020.99 1021.19 1021.27 1021.31 1021.39 1021.39 1021.35 1021.23 1021.15 1021.03 1020.87 1020.67
1018.11 1018.27 1018.27 1018.31 1018.47 1018.63 1018.95 1019.15 1019.43 1019.63 1019.71 1019.83 1019.75 1019.67 1019.67 1019.75 1019.79 1019.75 1019.71 1019.67 1019.67 1019.71 1019.79 1019.91 1019.95 1019.99 1020.07 1020.11 1020.03 1020.03 1019.99 1019.95 1019.95 1020.31 1020.59 1020.83 1020.87 1020.83 1020.79 1020.79 1020.79 1020.75 1020.91 1020.95 1020.87 1020.75 1020.79 1020.83 1020.83 1020.87 1020.95 1021.11 1021.15 1021.19 1021.19 1021.11 1021.15 1021.19 1020.99 1020.91 1020.91 1020.83 1020.67
1018.07 1018.19 1018.43 1018.55 1018.67 1018.67 1018.99 1019.23 1019.47 1019.67 1019.79 1019.91 1019.83 1019.75 1019.83 1019.87 1019.87 1019.87 1019.87 1019.87 1019.83 1019.83 1019.99 1020.03 1019.91 1019.87 1020.03 1019.99 1019.99 1020.07 1020.11 1020.23 1020.31 1020.43 1020.63 1020.95 1021.15 1021.47 1021.51 1021.27 1021.11 1021.07 1021.15 1021.35 1021.35 1021.03 1020.75 1020.63 1020.87 1020.91 1020.95 1020.95 1020.99 1021.03 1021.07 1021.11 1021.03 1021.11 1021.23 1021.27 1021.31 1021.15 1020.91
1018.19 1018.31 1018.51 1018.59 1018.71 1018.83 1019.03 1019.19 1019.39 1019.67 1019.83 1019.91 1019.83 1019.83 1019.95 1019.95 1019.95 1019.87 1019.83 1019.83 1019.87 1019.95 1020.11 1020.19 1020.23 1020.19 1020.19 1020.19 1020.23 1020.31 1020.31 1020.35 1020.35 1020.43 1020.59 1020.75 1020.99 1021.27 1021.59 1021.87 1021.75 1021.55 1021.31 1021.27 1021.47 1021.43 1021.27 1021.07 1020.91 1020.95 1020.99 1020.99 1021.23 1021.39 1021.19 1020.99 1020.91 1021.15 1021.43 1021.59 1021.55 1021.43 1021.31
1018.31 1018.55 1018.71 1018.75 1018.99 1019.15 1019.23 1019.39 1019.51 1019.67 1019.87 1019.95 1019.91 1019.95 1019.95 1019.99 1020.03 1020.03 1019.95 1019.87 1019.91 1020.03 1020.19 1020.27 1020.31 1020.35 1020.43 1020.23 1020.23 1020.23 1020.31 1020.43 1020.55 1020.55 1020.59 1020.75 1020.87 1020.91 1021.03 1021.31 1021.59 1021.83 1021.91 1021.83 1021.71 1021.63 1021.55 1021.39 1021.23 1021.11 1021.15 1021.15 1021.11 1021.31 1021.35 1021.23 1021.31 1021.35 1021.35 1021.27 1021.23 1021.31 1021.31
1018.19 1018.31 1018.55 1018.67 1018.75 1019.11 1019.31 1019.55 1019.63 1019.71 1019.83 1019.95 1019.95 1019.99 1020.03 1020.03 1020.07 1019.99 1019.91 1019.87 1019.91 1019.99 1020.15 1020.23 1020.35 1020.47 1020.39 1020.39 1020.27 1020.15 1020.23 1020.39 1020.43 1020.55 1020.71 1020.83 1020.87 1020.91 1020.91 1020.95 1021.03 1021.31 1021.75 1021.91 1021.79 1021.87 1021.83 1021.75 1021.67 1021.63 1021.51 1021.47 1021.39 1021.27 1021.27 1021.35 1021.31 1021.23 1021.15 1021.07 1021.07 1021.07 1021.03
Wind_Speed
7 7 6 7 9 13 15 15 16 14 13 13 13 14 14 13 13 12 11 12 12 11 10 10 9 7 8 7 6 6 6 6 5 6 6 5 5 6 5 4 5 5 5 5 5 5 4 3 3 4 4 3 3 3 3 2 2 2 1 1 0 0 1
9 9 8 7 8 13 15 15 15 14 13 13 13 14 13 14 13 13 12 12 12 13 11 10 9 8 8 7 6 6 6 6 6 4 4 4 3 3 5 5 5 5 5 5 5 4 3 4 3 4 4 3 4 3 3 3 3 3 2 2 2 1 1
11 10 9 7 9 11 14 13 14 14 14 12 13 13 14 14 14 14 13 12 11 11 10 10 10 9 7 7 7 7 7 6 5 5 6 6 6 5 5 5 5 5 6 4 4 5 4 4 4 4 4 4 4 4 4 3 3 3 3 3 3 2 2
13 12 10 8 8 10 14 14 14 13 12 13 14 14 15 15 13 13 13 13 13 12 12 10 10 9 7 8 7 7 7 7 7 7 6 5 6 5 5 5 5 4 4 5 6 5 4 4 5 4 4 4 4 4 4 4 4 3 3 3 3 3 3
14 12 9 8 8 9 11 13 14 13 12 11 13 15 15 14 13 11 11 13 13 14 13 12 10 9 7 8 7 7 8 8 7 6 6 5 5 4 5 6 6 5 6 5 4 4 4 4 5 5 4 4 4 4 5 4 4 4 3 3 3 3 4
12 11 10 8 6 7 8 12 14 15 13 11 13 14 14 15 13 14 13 13 12 12 11 10 10 9 9 8 7 7 6 6 6 6 6 6 5 5 5 6 6 6 6 6 5 5 5 5 5 5 5 4 4 4 4 4 4 4 4 3 4 3 3
10 8 7 6 7 7 8 8 8 10 11 12 13 14 14 14 15 14 12 13 13 13 12 12 11 10 9 8 8 8 8 8 7 7 7 6 6 6 6 6 6 6 7 5 5 6 5 5 5 5 5 5 4 4 4 4 4 4 3 3 3 3 3
1 3 6 6 6 4 5 7 7 7 8 9 12 14 16 15 14 13 13 13 13 12 12 12 10 10 9 9 8 8 8 8 7 7 6 7 7 6 6 6 6 7 5 7 7 6 7 6 5 5 6 5 5 5 5 4 4 4 3 3 3 3 3
9 7 3 5 7 6 5 7 8 9 11 13 13 13 14 13 13 13 13 13 12 12 12 12 11 10 9 9 9 9 9 8 8 7 8 8 7 7 7 6 6 5 6 7 6 6 6 6 6 6 6 5 5 5 5 5 5 4 4 4 4 4 4
11 12 5 3 2 3 4 3 3 5 9 10 11 12 14 14 12 13 12 12 12 13 13 12 10 10 10 9 9 9 9 9 9 9 8 8 7 7 6 6 6 5 6 6 6 7 7 7 7 6 6 6 5 5 6 5 5 5 4 5 5 5 5
6 7 7 10 4 8 7 1 4 7 9 11 11 9 11 12 12 12 13 12 13 12 12 11 10 11 10 10 10 8 8 9 9 9 8 7 7 8 7 6 6 6 6 6 6 7 7 7 6 6 6 7 7 6 6 7 7 6 5 5 4 5 6
8 6 5 4 7 8 2 8 10 7 2 10 10 9 10 10 11 11 11 13 12 12 10 10 10 11 10 9 10 8 9 9 8 8 9 8 6 7 7 7 7 6 6 6 7 7 7 8 7 6 7 8 8 8 8 7 7 7 6 6 6 6 6
9 10 11 11 9 8 11 7 2 8 13 7 4 7 7 8 8 9 10 10 10 10 11 8 9 10 9 9 9 7 8 8 7 7 7 7 7 6 5 6 5 4 5 4 5 6 7 8 8 8 8 8 8 8 8 8 7 7 7 6 6 6 6
10 9 9 9 9 10 10 11 12 5 5 9 12 10 7 6 7 4 4 6 9 6 9 10 11 7 3 8 6 5 4 3 5 7 8 7 6 5 5 4 3 4 3 3 1 1 3 5 8 9 7 7 7 7 7 7 6 6 6 6 5 4 5
11 11 9 10 10 8 10 11 12 12 11 8 8 11 10 12 13 12 13 12 12 11 11 7 10 7 4 3 7 5 4 5 4 3 2 0 3 5 5 5 4 4 3 3 3 2 2 1 6 6 6 6 6 6 4 5 5 4 4 5 5 4 5
6 7 8 8 9 9 9 9 9 10 10 9 10 11 9 6 7 7 10 10 10 10 7 7 6 8 7 7 4 2 4 5 3 2 2 3 1 0 2 3 4 4 3 3 3 2 2 2 1 4 7 6 3 3 4 4 3 2 1 2 3 3 3
5 4 4 5 7 8 10 11 11 10 10 10 11 9 9 9 8 8 9 9 9 10 8 8 6 7 7 4 3 2 2 4 3 2 2 2 2 3 2 2 4 4 4 3 3 3 3 2 1 1 0 5 6 5 5 4 2 3 3 3 5 4 4
6 4 4 6 7 7 7 7 8 9 10 10 9 8 7 8 7 8 8 6 8 7 8 9 9 6 2 1 2 1 3 3 3 0 0 0 1 1 2 3 1 3 4 4 4 3 2 2 1 0 1 2 3 4 4 2 1 3 5 5 3 3 4
6 6 5 5 7 8 8 8 7 7 7 7 7 7 6 7 8 8 8 9 7 7 7 7 8 7 4 4 3 1 1 1 0 1 2 1 1 1 1 2 1 1 1 2 2 3 2 2 1 1 0 2 3 3 2 2 3 5 7 3 5 3 3
7 8 8 8 8 9 10 9 8 8 8 9 8 8 6 7 9 9 9 9 6 6 4 5 6 6 4 1 1 1 2 2 2 3 3 1 0 0 1 1 0 1 2 2 2 1 1 2 3 1 1 2 3 3 2 2 4 5 5 8 5 4 3
9 10 10 10 10 9 9 9 9 8 7 6 7 6 8 8 7 7 7 7 8 6 5 4 7 6 3 1 0 1 2 2 3 3 3 1 1 1 2 2 2 3 3 2 2 2 3 3 1 0 2 3 4 3 2 0 3 2 5 6 8 8 3
11 10 10 9 10 9 9 10 8 8 6 6 7 8 9 8 7 8 6 4 6 6 6 6 7 7 4 3 2 2 1 2 2 2 1 1 2 2 3 5 4 2 1 2 2 2 2 2 1 2 1 1 3 3 1 2 4 4 3 5 7 9 3
9 9 10 9 9 9 8 8 8 7 8 9 9 9 9 8 9 10 9 8 7 7 7 7 7 6 4 3 2 1 1 2 3 3 3 2 3 2 3 5 2 1 1 0 1 2 1 1 2 2 2 2 1 3 1 1 4 7 7 6 6 6 3
10 9 8 9 7 7 8 9 9 9 9 9 10 8 8 9 9 10 10 8 6 7 7 7 6 4 4 4 3 3 3 3 3 4 3 3 3 3 3 3 1 1 1 1 0 0 1 1 2 3 1 2 3 4 4 1 5 6 6 5 6 5 3
9 8 8 8 8 7 7 8 10 10 9 9 10 8 8 9 9 10 9 7 7 7 7 5 4 4 5 4 4 4 5 5 5 4 3 3 3 2 3 2 1 1 2 2 1 1 1 2 4 4 5 6 2 4 4 3 5 9 8 6 5 2 2
11 9 8 8 8 8 6 5 8 10 10 10 8 6 7 8 9 9 8 6 6 7 6 5 5 4 4 4 5 5 5 5 5 5 5 4 3 2 2 2 3 3 2 3 3 3 4 2 4 6 2 6 7 7 6 5 5 7 10 10 11 8 1
10 9 7 7 7 5 4 4 8 9 8 6 6 7 7 7 9 9 7 7 8 7 5 4 4 4 3 3 4 5 5 5 5 5 5 4 4 4 4 3 2 2 2 3 3 5 6 5 6 7 7 6 6 6 6 5 5 7 11 12 13 12 7
9 8 7 6 7 5 6 7 7 7 7 6 7 6 6 7 8 7 7 8 7 4 4 4 2 2 3 4 4 4 4 4 4 5 4 4 4 5 5 4 3 2 2 3 5 7 7 6 6 7 6 5 6 6 6 8 10 4 9 12 13 14 13
7 7 7 6 6 5 7 7 7 7 6 5 5 5 5 6 7 5 5 6 4 3 4 4 4 3 3 3 3 3 3 3 4 5 4 5 5 4 4 3 4 4 4 4 5 7 7 6 6 6 6 5 5 4 4 3 4 8 6 9 11 12 13
5 4 5 6 6 5 6 6 6 6 6 6 5 4 4 5 6 5 5 4 3 4 3 3 3 3 2 2 2 2 2 3 3 4 4 5 3 4 4 5 4 5 4 4 4 5 6 5 5 5 5 4 3 3 3 3 4 6 9 7 10 10 9
7 6 6 5 6 6 7 8 7 7 6 5 5 5 4 4 5 4 4 1 2 4 4 3 3 3 2 1 0 0 1 3 3 3 4 4 3 5 5 4 4 5 5 4 5 4 5 6 5 5 5 4 4 3 2 4 4 4 6 8 8 9 10
5 4 5 7 6 6 7 7 7 7 6 5 4 5 4 4 4 5 2 2 3 3 3 4 4 3 2 1 1 1 1 0 1 3 4 4 4 4 3 4 4 5 5 5 5 4 4 4 5 6 6 5 3 3 2 2 2 2 3 4 6 5 6
6 7 9 8 8 8 7 7 7 6 5 4 3 4 3 3 2 3 2 3 3 3 3 2 2 2 1 1 0 1 1 2 2 2 4 5 4 5 4 4 4 4 4 4 4 4 3 3 4 4 5 4 3 3 2 1 1 1 0 1 1 1 2
7 6 6 8 8 8 7 7 6 5 5 4 3 3 3 2 2 1 1 1 2 2 1 1 0 1 1 2 3 3 3 2 6 6 4 4 4 4 5 5 4 4 4 3 3 3 4 3 4 3 4 4 3 2 1 0 1 1 2 2 3 3 2
6 6 6 8 6 7 8 7 6 6 6 4 4 4 3 2 1 1 2 1 1 2 1 1 1 1 2 3 4 4 3 4 4 5 6 5 5 5 4 3 3 3 3 2 2 2 0 4 4 3 2 3 3 3 1 1 3 1 1 2 4 5 5
5 6 5 5 5 6 7 7 8 6 5 4 3 3 3 3 3 2 2 1 1 2 3 2 2 4 4 3 4 4 4 4 4 4 4 5 5 5 5 6 6 5 2 2 6 7 7 4 1 1 2 3 1 1 2 3 2 1 2 3 5 5 4
7 6 6 6 7 5 6 5 6 6 5 4 3 3 2 2 1 0 1 2 1 2 3 3 1 1 2 3 4 4 4 4 5 3 3 4 4 4 4 3 3 7 8 6 5 5 7 7 7 6 2 1 1 2 5 6 5 3 4 5 5 4 4
6 6 6 6 7 7 6 5 5 6 5 4 4 4 2 2 0 3 3 3 3 2 3 3 2 2 2 2 2 3 3 3 3 3 3 3 4 3 4 3 2 2 4 6 6 5 5 5 6 6 6 6 4 1 1 1 3 4 5 6 6 6 4
Wind_Direction
189 183 191 185 174 172 175 173 173 175 175 175 175 170 168 169 169 169 169 171 172 171 176 172 173 169 171 174 169 166 168 169 169 171 174 183 182 170 171 183 178 184 179 184 201 204 217 210 214 206 199 199 182 210 203 212 232 233 237 204 277 194 252
198 194 192 185 180 176 177 174 174 175 177 177 176 168 167 169 169 170 172 172 172 172 176 175 171 172 171 173 168 164 168 176 174 173 172 184 184 179 179 181 185 193 188 197 196 211 201 216 196 203 195 200 199 202 212 215 218 214 215 231 220 281 274
202 198 193 191 180 181 176 177 178 176 176 176 174 167 169 169 171 172 170 170 170 171 173 176 176 171 170 167 166 175 173 172 176 176 177 186 191 184 190 189 195 187 197 199 198 204 203 200 192 203 194 201 201 206 216 221 220 219 222 217 212 212 245
202 197 194 191 183 184 176 176 179 179 175 175 171 168 167 169 172 171 169 169 167 169 174 180 176 173 168 168 173 177 179 179 183 186 192 188 191 190 184 197 202 191 182 201 204 201 198 189 196 199 198 193 202 207 213 217 221 214 215 203 212 207 213
200 193 188 185 184 182 179 175 178 179 177 177 167 166 165 167 168 169 171 171 168 172 177 178 178 176 170 171 175 178 183 184 189 192 195 199 196 191 190 197 194 195 199 200 203 200 189 192 198 197 208 197 204 203 214 218 221 220 213 201 215 220 224
193 190 187 183 176 171 176 177 178 177 174 171 163 163 164 165 167 171 173 172 173 171 171 173 178 176 176 179 176 175 179 188 191 192 197 199 198 200 203 200 193 199 197 203 195 202 197 195 197 195 202 203 207 207 212 212 228 217 215 203 212 225 227
186 181 148 149 155 153 148 149 167 178 174 166 162 162 162 166 171 173 171 173 171 168 173 175 180 178 182 176 182 172 180 188 189 196 198 203 205 208 206 199 195 197 200 190 198 198 199 199 199 196 200 202 204 207 211 218 225 218 202 197 218 236 235
12 136 167 161 134 115 145 145 149 144 147 153 160 165 166 170 168 169 172 172 172 170 174 175 177 180 181 180 180 180 183 188 189 195 198 202 209 211 204 200 193 197 192 195 203 191 199 199 197 196 197 201 207 212 216 216 219 218 198 214 225 244 233
91 17 311 197 153 163 179 157 155 153 152 154 159 164 165 167 168 169 171 171 174 172 178 178 178 177 178 182 182 185 185 186 191 195 201 204 208 210 206 204 203 187 185 202 201 198 202 204 199 196 199 205 205 211 217 216 219 213 203 213 215 226 239
144 150 153 326 325 131 147 116 156 148 137 140 152 162 166 168 170 170 169 172 173 177 178 179 176 173 176 182 188 187 184 188 191 195 200 207 206 208 207 207 214 206 195 199 199 201 211 207 202 196 199 209 209 210 214 209 211 210 211 215 214 220 229
147 151 152 141 122 355 355 47 200 171 150 148 151 158 163 166 168 170 171 172 176 179 178 179 175 175 178 181 187 186 188 190 190 194 197 200 202 207 208 210 215 217 212 210 209 208 207 208 203 197 199 206 208 209 209 205 201 205 215 220 217 219 227
128 118 98 87 120 123 73 342 335 329 188 149 149 151 160 163 167 169 173 177 176 178 178 178 174 177 178 183 181 185 189 190 189 195 195 196 191 199 205 210 216 220 225 210 214 215 207 203 204 198 202 207 206 203 206 203 198 200 206 213 214 220 227
143 147 147 148 155 157 142 136 21 355 341 333 124 135 143 145 155 170 175 179 184 182 178 172 172 176 179 182 178 177 188 186 191 193 196 196 200 200 205 215 208 209 227 233 223 210 206 208 209 210 204 207 200 201 202 201 201 199 204 210 212 215 221
141 147 147 144 148 153 162 153 129 106 40 12 4 0 26 41 37 36 78 62 23 29 67 60 39 1 218 171 168 160 168 190 193 194 191 193 197 201 204 185 164 155 141 90 81 195 202 219 214 210 206 205 202 202 194 193 193 202 205 208 215 215 220
147 156 152 150 150 146 152 153 149 144 137 124 81 55 40 36 42 42 43 44 46 29 12 38 97 99 348 121 126 123 112 81 52 30 20 314 227 213 205 183 176 160 142 129 114 54 7 208 207 216 216 214 206 203 184 165 181 188 194 202 206 201 221
126 140 150 152 151 144 142 136 133 132 126 121 117 113 111 92 84 75 82 74 70 72 62 4 26 61 51 27 18 70 122 118 105 73 90 97 80 334 268 215 165 153 144 132 127 109 66 19 46 187 201 203 182 126 129 142 131 140 132 232 220 231 241
116 114 111 119 124 138 144 138 132 122 115 123 129 133 133 130 134 128 109 106 109 111 115 102 48 52 58 37 360 356 28 48 59 35 33 9 26 5 19 114 145 137 128 124 113 113 97 61 48 45 198 182 164 156 151 149 149 148 170 207 238 226 219
126 119 123 122 121 111 107 122 131 135 133 131 128 125 127 121 118 101 105 113 106 101 113 113 110 87 90 235 250 75 39 34 43 35 313 56 0 16 343 346 45 123 133 124 121 117 91 97 146 250 115 106 127 139 136 125 131 202 188 176 186 220 226
124 114 102 100 92 83 86 85 78 81 83 88 97 106 112 119 111 104 112 111 125 136 127 124 128 137 162 200 213 148 110 216 152 207 249 257 296 273 318 327 355 42 60 97 125 116 114 148 132 244 335 100 124 108 84 86 31 336 306 208 159 196 211
85 86 84 76 76 81 83 81 76 76 81 87 91 97 105 107 115 119 121 120 121 115 121 124 110 119 135 141 31 96 158 198 201 206 229 247 304 279 217 207 136 72 52 46 33 56 92 143 161 133 74 75 89 96 79 80 17 342 330 318 298 190 172
78 78 75 72 66 70 76 82 83 79 75 81 93 97 101 87 74 84 84 104 116 119 107 75 85 87 100 173 5 42 80 147 183 199 211 172 119 79 68 62 54 49 46 61 55 53 59 35 43 184 139 137 135 132 124 48 342 358 341 333 321 298 169
69 69 74 77 71 48 41 45 48 52 46 39 51 57 51 60 74 78 70 56 85 96 100 106 102 98 86 46 2 12 48 112 113 84 83 77 84 83 65 42 24 51 41 43 10 5 57 66 107 142 159 159 128 118 119 343 337 349 359 332 318 307 259
75 79 85 82 88 101 101 93 77 64 62 57 54 54 58 68 74 75 69 54 36 44 51 65 70 70 78 71 16 10 42 101 117 106 87 77 83 85 103 121 143 88 62 66 18 22 50 92 113 150 189 217 146 138 140 246 338 356 334 327 312 310 234
83 82 76 75 64 66 71 78 81 72 71 72 66 64 69 73 81 88 90 86 77 69 57 56 57 59 68 57 34 25 35 45 62 73 67 64 62 54 46 48 64 80 54 127 177 226 221 154 123 114 81 258 187 196 166 89 13 2 331 335 317 301 289
72 75 83 92 95 76 75 86 91 90 82 75 70 64 71 77 81 85 87 90 94 94 90 84 78 68 67 59 46 43 38 35 41 45 53 60 56 54 51 29 34 60 56 33 1 293 264 197 159 136 222 238 114 109 89 49 19 6 354 12 12 316 230
112 105 103 101 92 98 98 102 99 94 91 89 90 87 83 83 86 85 84 82 86 86 87 82 71 63 65 62 59 55 45 37 38 38 34 26 24 25 46 62 67 63 58 21 13 28 46 47 162 178 60 47 58 50 44 44 21 12 10 33 35 28 111
106 116 115 106 104 115 118 98 91 92 94 93 87 86 87 90 90 87 86 83 77 71 67 62 61 60 58 58 62 57 57 50 43 35 26 24 31 36 43 48 74 55 49 61 68 72 62 62 64 65 69 66 71 71 62 62 49 25 23 36 38 29 34
107 99 91 97 99 88 77 77 79 79 77 81 90 92 91 93 89 87 87 85 90 100 110 101 84 68 60 55 47 43 41 38 38 35 28 29 43 52 43 22 19 27 40 67 84 81 75 69 66 74 77 79 80 83 78 68 64 39 33 46 45 36 27
115 114 114 107 99 88 86 82 80 83 88 87 83 76 80 88 93 95 96 105 134 141 131 128 129 114 91 63 40 30 29 33 42 40 34 33 29 52 52 27 37 22 25 50 86 99 100 91 85 83 83 88 81 72 71 68 78 65 43 33 44 38 32
120 120 120 116 111 103 94 91 86 82 80 82 85 86 87 100 109 117 117 130 154 132 135 123 117 111 92 82 70 35 26 37 48 62 56 41 36 51 51 40 40 38 36 51 70 100 106 105 110 103 98 93 82 61 46 33 26 59 66 49 31 34 32
148 152 140 129 123 115 110 106 100 93 82 78 85 84 88 88 100 101 103 151 114 106 117 122 124 119 111 115 102 8 339 6 28 41 61 76 48 43 35 37 39 50 12 41 57 80 116 134 132 125 127 121 117 129 82 42 33 10 38 56 56 27 15
130 122 117 118 115 111 107 99 96 98 93 76 83 85 84 87 100 100 122 108 97 107 110 111 106 104 128 151 166 243 258 308 326 14 40 39 43 60 57 55 53 59 29 32 45 44 78 110 134 140 139 142 135 102 79 47 8 18 25 45 51 47 23
145 143 138 131 131 122 112 112 112 111 111 107 91 96 100 100 98 137 138 100 97 98 103 99 115 125 122 139 243 48 100 180 249 72 51 48 47 54 60 63 68 64 57 43 37 45 51 68 82 97 117 126 113 117 107 32 325 301 256 85 110 102 61
140 137 130 134 134 127 124 124 128 130 126 130 143 130 118 108 112 146 124 114 112 105 85 101 121 171 80 39 35 49 60 61 110 99 64 53 42 48 49 41 39 65 63 41 27 65 65 52 72 95 120 130 133 132 102 297 272 306 340 3 14 12 21
136 131 130 130 138 133 135 135 132 136 136 146 158 134 121 128 144 125 133 140 100 100 109 55 10 106 79 77 75 88 93 90 98 104 104 95 75 63 49 21 15 68 70 59 43 327 118 129 113 114 118 132 154 136 143 306 298 276 251 16 36 26 7
118 116 115 119 115 124 124 128 132 134 134 154 151 132 132 144 160 166 151 111 77 78 60 48 76 87 107 100 108 106 97 98 103 115 119 119 122 112 88 69 68 30 58 47 33 41 27 36 126 126 116 102 27 337 251 228 240 47 38 17 50 55 57
117 115 117 118 112 113 122 128 129 128 132 151 143 136 146 167 115 148 197 131 103 93 79 59 68 84 111 124 134 135 127 122 116 135 135 136 134 126 115 99 44 50 41 31 33 35 29 38 39 38 25 71 113 10 14 34 34 22 349 13 20 28 23
120 130 130 133 136 138 129 129 132 138 150 158 145 156 167 182 148 172 170 140 113 103 77 71 99 169 197 165 146 130 122 132 137 136 127 142 151 134 126 115 73 5 30 39 21 23 40 43 39 32 41 32 31 153 291 352 352 353 351 341 343 339 337